Location: Cisewo
(53.3833°N, 14.9000°E)
Time: 13:30:44
(UTC+00:00)

JB-3 - Pass Details

Date: 18 April 2021
Orbit: 525 x 589 km, 97.3° (Epoch: 16 May)

Event Time Altitude Azimuth Distance (km) Brightness Sun altitude
Rises 20:23:14 0° 15° (NNE) 2,825 8.4 -17.4°
Reaches altitude 10° 20:25:26 10° 19° (NNE) 1,914 7.5 -17.6°
Maximum altitude 20:29:34 65° 101° (E) 639 4.4 -18.0°
Enters shadow 20:30:57 38° 169° (SSE) 880 4.9 -18.1°
